SWR7HL ENGM-LSZH

Flight info

Callsign SWR7HL
Flight time N/A
Altitude 39000
Route VIPPA6D VIPPA DCT AMRAK/N0476F380 DCT SWALM DCT OMOGI/N0478F390 T721 RILAX RILAX2A
Aircraft B77W/H-SDE1E2E3FGHIJ2J3J4J5M1RWXY/LB1D1

Departure

Time N/A
Airport Oslo-Gardermoen International Airport (ENGM)

Arrival

Time 2026-05-06 14:09
Airport Zürich Airport (LSZH)
Time Latitude Longitude Altitude Speed Heading
2026-05-06 12:48 56.03795 9.88073 36925 ft 439 kts 187°
2026-05-06 12:48 55.97690 9.87399 36918 ft 438 kts 187°
2026-05-06 12:49 55.91609 9.86729 36910 ft 438 kts 187°
2026-05-06 12:49 55.85529 9.86061 36907 ft 439 kts 187°
2026-05-06 12:50 55.79487 9.85401 36908 ft 439 kts 187°
2026-05-06 12:50 55.73360 9.84732 36905 ft 439 kts 186°
2026-05-06 12:51 55.67279 9.84071 36908 ft 441 kts 187°
2026-05-06 12:51 55.64190 9.83734 37048 ft 446 kts 186°
2026-05-06 12:51 55.61116 9.83402 37387 ft 444 kts 186°
2026-05-06 12:51 55.58027 9.83069 37716 ft 442 kts 186°
2026-05-06 12:52 55.55000 9.82742 37933 ft 443 kts 186°
2026-05-06 12:52 55.51882 9.82405 38069 ft 447 kts 186°
2026-05-06 12:52 55.48771 9.82070 38222 ft 449 kts 186°
2026-05-06 12:52 55.45666 9.81736 38428 ft 449 kts 186°
2026-05-06 12:53 55.42552 9.81402 38644 ft 450 kts 186°
2026-05-06 12:53 55.39434 9.81068 38827 ft 450 kts 186°
2026-05-06 12:53 55.36335 9.80737 38893 ft 452 kts 186°
2026-05-06 12:54 55.30054 9.80067 38901 ft 450 kts 186°
2026-05-06 12:54 55.23831 9.79405 38909 ft 451 kts 186°
2026-05-06 12:55 55.17563 9.78741 38908 ft 451 kts 186°
2026-05-06 12:55 55.11307 9.78079 38908 ft 452 kts 186°
2026-05-06 12:56 55.05018 9.77417 38908 ft 452 kts 186°
2026-05-06 12:56 54.98789 9.76763 38908 ft 452 kts 186°
2026-05-06 12:57 54.92510 9.76105 38899 ft 453 kts 186°
2026-05-06 12:57 54.86243 9.75451 38905 ft 451 kts 186°
2026-05-06 12:58 54.79983 9.74749 38903 ft 451 kts 187°
2026-05-06 12:58 54.73747 9.73821 38895 ft 451 kts 187°
2026-05-06 12:59 54.67473 9.72894 38891 ft 453 kts 187°
2026-05-06 12:59 54.61213 9.71979 38889 ft 458 kts 187°
2026-05-06 13:00 54.54818 9.71052 38888 ft 462 kts 187°
2026-05-06 13:00 54.48400 9.70128 38887 ft 463 kts 187°
2026-05-06 13:01 54.41979 9.69207 38883 ft 462 kts 187°
2026-05-06 13:01 54.35583 9.68293 38888 ft 462 kts 187°
2026-05-06 13:02 54.29171 9.67379 38878 ft 463 kts 187°
2026-05-06 13:02 54.22764 9.66469 38879 ft 462 kts 187°
2026-05-06 13:03 54.16336 9.65559 38873 ft 462 kts 187°
2026-05-06 13:03 54.09952 9.64658 38868 ft 463 kts 187°
2026-05-06 13:04 54.03519 9.63753 38870 ft 462 kts 187°
2026-05-06 13:04 53.97118 9.62855 38864 ft 463 kts 187°
2026-05-06 13:05 53.90747 9.61965 38863 ft 463 kts 187°
2026-05-06 13:05 53.84339 9.61071 38861 ft 463 kts 187°
2026-05-06 13:06 53.77923 9.60179 38861 ft 463 kts 187°
2026-05-06 13:06 53.71482 9.59287 38857 ft 462 kts 187°
2026-05-06 13:07 53.65083 9.58403 38857 ft 464 kts 187°
2026-05-06 13:07 53.58691 9.57523 38858 ft 464 kts 187°
2026-05-06 13:08 53.52279 9.56643 38857 ft 463 kts 187°
2026-05-06 13:08 53.45858 9.55764 38853 ft 463 kts 187°
2026-05-06 13:09 53.39409 9.54884 38848 ft 463 kts 187°
2026-05-06 13:09 53.32959 9.54007 38853 ft 462 kts 187°
2026-05-06 13:10 53.26486 9.53129 38845 ft 464 kts 187°
2026-05-06 13:10 53.20051 9.52259 38848 ft 463 kts 187°
2026-05-06 13:11 53.13622 9.51392 38836 ft 462 kts 187°
2026-05-06 13:11 53.07209 9.50530 38830 ft 463 kts 187°
2026-05-06 13:12 53.00743 9.49664 38832 ft 463 kts 187°
2026-05-06 13:12 52.94282 9.48801 38827 ft 463 kts 187°
2026-05-06 13:13 52.87887 9.47949 38831 ft 463 kts 187°
2026-05-06 13:13 52.81495 9.47100 38830 ft 462 kts 187°
2026-05-06 13:14 52.75104 9.46254 38828 ft 463 kts 187°
2026-05-06 13:14 52.68711 9.45410 38826 ft 463 kts 187°
2026-05-06 13:15 52.62289 9.44564 38826 ft 463 kts 187°
2026-05-06 13:15 52.55844 9.43718 38822 ft 464 kts 187°
2026-05-06 13:16 52.49357 9.42870 38822 ft 463 kts 187°
2026-05-06 13:16 52.42922 9.42030 38814 ft 462 kts 187°
2026-05-06 13:17 52.36523 9.41198 38810 ft 463 kts 187°
2026-05-06 13:17 52.30090 9.40363 38800 ft 462 kts 187°
2026-05-06 13:18 52.23658 9.39531 38795 ft 463 kts 187°
2026-05-06 13:18 52.17254 9.38705 38796 ft 463 kts 187°
2026-05-06 13:19 52.10858 9.37883 38784 ft 464 kts 187°
2026-05-06 13:19 52.04454 9.37062 38782 ft 463 kts 187°
2026-05-06 13:20 51.98042 9.36242 38775 ft 463 kts 187°
2026-05-06 13:20 51.91645 9.35426 38778 ft 462 kts 187°
2026-05-06 13:21 51.85235 9.34611 38780 ft 463 kts 186°
2026-05-06 13:21 51.78816 9.33798 38780 ft 463 kts 186°
2026-05-06 13:22 51.72430 9.32991 38775 ft 462 kts 186°
2026-05-06 13:22 51.66058 9.32187 38774 ft 463 kts 186°
2026-05-06 13:23 51.59674 9.31385 38773 ft 461 kts 186°
2026-05-06 13:23 51.53257 9.30580 38779 ft 463 kts 186°
2026-05-06 13:24 51.46868 9.29782 38781 ft 462 kts 186°
2026-05-06 13:24 51.40508 9.28990 38778 ft 462 kts 186°
2026-05-06 13:25 51.34097 9.28193 38781 ft 462 kts 186°
2026-05-06 13:25 51.27708 9.27401 38780 ft 463 kts 186°
2026-05-06 13:26 51.21315 9.26611 38776 ft 462 kts 186°
2026-05-06 13:26 51.14962 9.25828 38777 ft 461 kts 186°
2026-05-06 13:27 51.08552 9.25040 38774 ft 463 kts 186°
2026-05-06 13:27 51.02180 9.24259 38776 ft 460 kts 186°
2026-05-06 13:28 50.95809 9.23480 38775 ft 461 kts 186°
2026-05-06 13:28 50.89415 9.22701 38768 ft 462 kts 186°
2026-05-06 13:29 50.83019 9.21923 38765 ft 460 kts 186°
2026-05-06 13:29 50.76680 9.21155 38761 ft 461 kts 186°
2026-05-06 13:30 50.70314 9.20365 38757 ft 460 kts 188°
2026-05-06 13:30 50.63997 9.19037 38763 ft 459 kts 189°
2026-05-06 13:31 50.57688 9.17685 38761 ft 459 kts 189°
2026-05-06 13:31 50.51357 9.16352 38761 ft 458 kts 189°
2026-05-06 13:32 50.45072 9.15043 38765 ft 458 kts 189°
2026-05-06 13:32 50.38791 9.13744 38763 ft 459 kts 189°
2026-05-06 13:33 50.32460 9.12441 38766 ft 458 kts 189°
2026-05-06 13:33 50.26146 9.11146 38770 ft 459 kts 189°
2026-05-06 13:34 50.19869 9.09864 38768 ft 458 kts 189°
2026-05-06 13:34 50.13548 9.08576 38764 ft 458 kts 189°
2026-05-06 13:35 50.07278 9.07302 38754 ft 459 kts 189°
2026-05-06 13:35 50.00972 9.06025 38749 ft 456 kts 188°
2026-05-06 13:36 49.94688 9.04755 38748 ft 458 kts 189°
2026-05-06 13:36 49.88401 9.03487 38752 ft 457 kts 189°
2026-05-06 13:37 49.82099 9.02221 38755 ft 457 kts 189°
2026-05-06 13:37 49.75819 9.00962 38753 ft 456 kts 189°
2026-05-06 13:38 49.69514 8.99701 38766 ft 457 kts 189°
2026-05-06 13:38 49.63258 8.98380 38767 ft 456 kts 191°
2026-05-06 13:39 49.57027 8.96627 38784 ft 456 kts 192°
2026-05-06 13:39 49.50792 8.94882 38785 ft 457 kts 191°
2026-05-06 13:40 49.44553 8.93156 38777 ft 455 kts 191°
2026-05-06 13:40 49.38300 8.91439 38779 ft 457 kts 191°
2026-05-06 13:41 49.32111 8.89748 38773 ft 454 kts 191°
2026-05-06 13:41 49.25863 8.88047 38777 ft 455 kts 191°
2026-05-06 13:42 49.19672 8.86367 38779 ft 455 kts 191°
2026-05-06 13:42 49.13436 8.84665 38774 ft 454 kts 192°
2026-05-06 13:43 49.07265 8.82982 38767 ft 454 kts 192°
2026-05-06 13:43 49.01030 8.81287 38774 ft 455 kts 191°
2026-05-06 13:44 48.94839 8.79608 38767 ft 456 kts 191°
2026-05-06 13:44 48.88622 8.77928 38779 ft 455 kts 191°
2026-05-06 13:45 48.82353 8.76242 38784 ft 455 kts 191°
2026-05-06 13:45 48.73016 8.73741 38786 ft 450 kts 192°
2026-05-06 13:46 48.69967 8.72927 38566 ft 440 kts 192°
2026-05-06 13:46 48.66985 8.72131 37998 ft 440 kts 192°
2026-05-06 13:46 48.63963 8.71325 37298 ft 442 kts 192°
2026-05-06 13:46 48.60981 8.70531 36716 ft 440 kts 192°
2026-05-06 13:47 48.57981 8.69733 36291 ft 434 kts 192°
2026-05-06 13:47 48.55024 8.68948 35801 ft 429 kts 192°
2026-05-06 13:47 48.52129 8.68181 34976 ft 425 kts 193°
2026-05-06 13:47 48.49235 8.67413 33964 ft 425 kts 192°
2026-05-06 13:48 48.46343 8.66646 32698 ft 435 kts 192°
2026-05-06 13:48 48.43332 8.65847 31262 ft 448 kts 191°
2026-05-06 13:48 48.40300 8.65047 30332 ft 448 kts 191°
2026-05-06 13:48 48.37248 8.64238 29814 ft 439 kts 191°
2026-05-06 13:49 48.34323 8.63367 29325 ft 430 kts 192°
2026-05-06 13:49 48.31423 8.62480 28573 ft 428 kts 192°
2026-05-06 13:49 48.28519 8.61595 27668 ft 428 kts 191°
2026-05-06 13:49 48.25596 8.60708 26855 ft 426 kts 191°
2026-05-06 13:50 48.22716 8.59836 26129 ft 423 kts 191°
2026-05-06 13:50 48.19832 8.58966 25394 ft 420 kts 191°
2026-05-06 13:50 48.17001 8.58113 24610 ft 418 kts 191°
2026-05-06 13:50 48.14161 8.57263 23910 ft 414 kts 190°
2026-05-06 13:51 48.11350 8.56423 23324 ft 408 kts 190°
2026-05-06 13:51 48.08618 8.55609 22771 ft 402 kts 190°
2026-05-06 13:51 48.05894 8.54798 22203 ft 397 kts 190°
2026-05-06 13:51 48.03229 8.54006 21643 ft 392 kts 190°
2026-05-06 13:52 48.00552 8.53212 21085 ft 388 kts 191°
2026-05-06 13:52 47.97872 8.52418 20511 ft 398 kts 191°
2026-05-06 13:52 47.95173 8.51884 19926 ft 398 kts 182°
2026-05-06 13:52 47.92432 8.52048 19356 ft 392 kts 173°
2026-05-06 13:53 47.89761 8.52785 18860 ft 384 kts 169°
2026-05-06 13:53 47.87204 8.53584 18311 ft 376 kts 169°
2026-05-06 13:53 47.84665 8.54380 17444 ft 373 kts 169°
2026-05-06 13:53 47.82159 8.55164 16797 ft 371 kts 169°
2026-05-06 13:54 47.79638 8.55952 16126 ft 370 kts 169°
2026-05-06 13:54 47.77150 8.56730 15533 ft 366 kts 169°
2026-05-06 13:54 47.74650 8.57511 15066 ft 359 kts 169°
2026-05-06 13:54 47.72243 8.58264 14555 ft 350 kts 168°
2026-05-06 13:55 47.69994 8.59332 14101 ft 335 kts 158°
2026-05-06 13:55 47.67992 8.60928 13674 ft 322 kts 148°
2026-05-06 13:55 47.66264 8.62953 13161 ft 314 kts 138°
2026-05-06 13:55 47.64803 8.65323 12583 ft 310 kts 132°
2026-05-06 13:56 47.63436 8.67753 11912 ft 308 kts 132°
2026-05-06 13:56 47.62083 8.70184 11230 ft 307 kts 131°
2026-05-06 13:56 47.60741 8.72621 10503 ft 306 kts 131°
2026-05-06 13:56 47.59412 8.75044 9845 ft 304 kts 131°
2026-05-06 13:57 47.58083 8.77469 9194 ft 303 kts 130°
2026-05-06 13:57 47.56760 8.79885 8768 ft 302 kts 129°
2026-05-06 13:57 47.55754 8.82586 8458 ft 299 kts 109°
2026-05-06 13:57 47.55356 8.85537 8340 ft 288 kts 99°
2026-05-06 13:58 47.55113 8.88376 8279 ft 273 kts 98°
2026-05-06 13:58 47.54904 8.91108 8243 ft 260 kts 97°
2026-05-06 13:58 47.54712 8.93691 8195 ft 248 kts 97°
2026-05-06 13:58 47.54528 8.96178 8161 ft 236 kts 97°
2026-05-06 13:59 47.54354 8.98525 7929 ft 231 kts 97°
2026-05-06 13:59 47.54167 9.00878 7580 ft 230 kts 102°
2026-05-06 13:59 47.53592 9.03063 7178 ft 230 kts 124°
2026-05-06 13:59 47.52493 9.04724 6972 ft 220 kts 149°
2026-05-06 14:00 47.51114 9.05596 6956 ft 214 kts 171°
2026-05-06 14:00 47.49642 9.05707 6966 ft 210 kts 185°
2026-05-06 14:00 47.48188 9.05568 6970 ft 209 kts 187°
2026-05-06 14:00 47.46753 9.05366 6972 ft 208 kts 188°
2026-05-06 14:01 47.45322 9.05039 6975 ft 207 kts 199°
2026-05-06 14:01 47.44059 9.04074 6967 ft 205 kts 219°
2026-05-06 14:01 47.43126 9.02515 6970 ft 203 kts 240°
2026-05-06 14:01 47.42632 9.00562 6968 ft 203 kts 259°
2026-05-06 14:02 47.42561 8.98491 6987 ft 205 kts 274°
2026-05-06 14:02 47.42741 8.96377 6989 ft 205 kts 276°
2026-05-06 14:02 47.42925 8.94307 6830 ft 203 kts 276°
2026-05-06 14:02 47.43089 8.92294 6570 ft 191 kts 276°
2026-05-06 14:03 47.43229 8.90434 6322 ft 177 kts 276°
2026-05-06 14:03 47.43356 8.88682 6099 ft 168 kts 276°
2026-05-06 14:03 47.43479 8.86992 5871 ft 163 kts 276°
2026-05-06 14:03 47.43597 8.85372 5650 ft 153 kts 276°
2026-05-06 14:04 47.43708 8.83855 5436 ft 145 kts 276°
2026-05-06 14:04 47.43816 8.82388 5222 ft 144 kts 276°
2026-05-06 14:04 47.43924 8.80924 5010 ft 142 kts 276°
2026-05-06 14:04 47.44029 8.79492 4796 ft 141 kts 276°
2026-05-06 14:05 47.44136 8.78041 4581 ft 143 kts 276°
2026-05-06 14:05 47.44243 8.76590 4365 ft 141 kts 276°
2026-05-06 14:05 47.44348 8.75145 4145 ft 142 kts 276°
2026-05-06 14:05 47.44454 8.73709 3929 ft 141 kts 276°
2026-05-06 14:06 47.44558 8.72273 3719 ft 140 kts 276°
2026-05-06 14:06 47.44662 8.70857 3510 ft 140 kts 276°
2026-05-06 14:06 47.44766 8.69425 3290 ft 139 kts 276°
2026-05-06 14:06 47.44869 8.68003 3071 ft 139 kts 276°
2026-05-06 14:07 47.44972 8.66587 2860 ft 138 kts 276°
2026-05-06 14:07 47.45072 8.65189 2650 ft 137 kts 276°
2026-05-06 14:07 47.45175 8.63784 2433 ft 137 kts 276°
2026-05-06 14:07 47.45273 8.62403 2226 ft 135 kts 275°
2026-05-06 14:08 47.45368 8.61045 2058 ft 135 kts 276°
2026-05-06 14:08 47.45473 8.59662 1851 ft 134 kts 276°
2026-05-06 14:08 47.45577 8.58307 1630 ft 132 kts 275°
2026-05-06 14:08 47.45665 8.56945 1412 ft 133 kts 276°
2026-05-06 14:09 47.45752 8.55734 1389 ft 97 kts 275°
2026-05-06 14:09 47.45803 8.55018 1389 ft 42 kts 276°
2026-05-06 14:09 47.45827 8.54632 1389 ft 33 kts 277°
2026-05-06 14:09 47.45857 8.54373 1389 ft 18 kts 294°
2026-05-06 14:10 47.45902 8.54289 1389 ft 4 kts
2026-05-06 14:10 47.45931 8.54286 1389 ft 3 kts
2026-05-06 14:10 47.45944 8.54302 1389 ft 2 kts 62°
2026-05-06 14:10 47.45952 8.54361 1389 ft 9 kts 87°
2026-05-06 14:11 47.45946 8.54490 1388 ft 16 kts 95°
2026-05-06 14:11 47.45933 8.54670 1387 ft 17 kts 97°
2026-05-06 14:11 47.45921 8.54846 1388 ft 17 kts 96°
2026-05-06 14:11 47.45916 8.54974 1389 ft 5 kts 71°
2026-05-06 14:12 47.45934 8.54996 1389 ft 4 kts 21°
2026-05-06 14:12 47.45977 8.55016 1389 ft 7 kts 20°
2026-05-06 14:12 47.45999 8.55050 1389 ft 4 kts 85°
2026-05-06 14:12 47.45992 8.55143 1389 ft 11 kts 97°
2026-05-06 14:13 47.45982 8.55262 1389 ft 11 kts 97°
2026-05-06 14:13 47.45972 8.55384 1389 ft 12 kts 97°
2026-05-06 14:13 47.45967 8.55492 1389 ft 7 kts 66°
2026-05-06 14:13 47.46005 8.55515 1389 ft 6 kts
2026-05-06 14:14 47.46038 8.55521 1389 ft 0 kts
2026-05-06 14:14 47.46040 8.55521 1389 ft 0 kts